[[{"header":{"parameterUnit":"m.s-1","parameterCategory":2,"la1":30.2991,"la2":30.254,"lo1":-89.0895,"lo2":-89.0444,"dy":0.0017,"dx":0.0017,"nx":28,"ny":28,"refTime":"2023-10-07T09:00:00:Z","depth":"0","parameterNumber":2,"parameterNumberName":"U-component_of_CURRENTS"},"data":[0,0,0,0,0,0,0,0,0,0,0,0,0,0,0,0,0,0,0,0,0,0,0,0,0,0,0,0,0,0,0,0,0,0,0,0,0,0,0,0,0,0,0,0,0,0,0,0,0,0,0,0,0,0,0,0,0,0,-0.2192,-0.2192,0,-0.2195,-0.2194,-0.2194,-0.2169,-0.2168,-0.2168,-0.2168,-0.213,-0.213,-0.2129,0,0,0,0,0,0,0,0,0,0,0,0,0,-0.215,-0.215,-0.2192,-0.2192,-0.2192,-0.2195,-0.2194,-0.2194,-0.2169,-0.2168,-0.2168,-0.2167,-0.213,-0.213,-0.2129,0,0,0,0,0,0,0,0,0,0,0,0,0,-0.2159,-0.215,-0.2191,-0.2182,-0.2182,-0.2195,-0.2194,-0.2194,-0.2169,-0.2168,-0.2168,-0.2167,-0.2131,-0.213,-0.2129,-0.2136,0,0,-0.2126,-0.2126,0,0,0,0,0,0,0,0,-0.2158,-0.216,-0.2183,-0.2183,-0.2182,-0.2183,-0.2166,-0.2174,-0.2169,-0.2171,-0.2168,-0.2167,-0.2147,-0.2144,-0.2143,-0.2134,-0.2133,-0.2126,-0.2126,-0.2125,-0.2125,0,0,0,0,0,0,0,-0.2158,-0.216,-0.219,-0.2184,-0.2183,-0.2173,-0.2173,-0.2167,-0.2159,-0.217,-0.2169,-0.2175,-0.2146,-0.2144,-0.2142,-0.2132,-0.2126,-0.2125,-0.2125,-0.2124,-0.2147,-0.2148,0,0,0,0,0,0,-0.2165,-0.2159,-0.219,-0.219,-0.2172,-0.2175,-0.2175,-0.2181,-0.216,-0.2157,-0.2175,-0.2174,-0.2145,-0.2143,-0.214,-0.2157,-0.2125,-0.2124,-0.2124,-0.2146,-0.2147,-0.2149,0,0,0,0,0,0,-0.2164,-0.2168,-0.2189,-0.2177,-0.2179,-0.2176,-0.2183,-0.2182,-0.218,-0.2165,-0.216,-0.2176,-0.2145,-0.2141,-0.214,-0.2155,-0.2124,-0.2123,-0.2145,-0.2147,-0.2148,-0.2184,0,0,0,0,0,0,-0.2163,-0.2168,-0.2171,-0.2178,-0.218,-0.2204,-0.2184,-0.2182,-0.2185,-0.2183,-0.2164,-0.2159,-0.2144,-0.2141,-0.2139,-0.2153,-0.2122,-0.2143,-0.2146,-0.2148,-0.2182,-0.2187,-0.2192,0,0,0,0,0,-0.2162,-0.2172,-0.2171,-0.2175,-0.2187,-0.2205,-0.2206,-0.2199,-0.2186,-0.2193,-0.2178,-0.216,-0.2153,-0.2141,-0.2138,-0.2152,-0.2142,-0.2145,-0.2147,-0.2179,-0.2186,-0.2191,0,0,0,0,0,0,-0.2153,-0.2171,-0.217,-0.2185,-0.2197,-0.2202,-0.2205,-0.2203,-0.2197,-0.2189,-0.2169,-0.2165,-0.2172,-0.216,-0.2147,-0.2168,-0.2147,-0.2149,-0.2173,-0.2179,-0.2184,-0.2187,-0.2122,0,0,0,0,0,-0.2156,-0.2166,-0.2184,-0.2193,-0.2201,-0.2203,-0.2207,-0.2207,-0.2206,-0.2202,-0.219,-0.2181,-0.2182,-0.2177,-0.2175,-0.2181,-0.2175,-0.2192,-0.2197,-0.2201,-0.2204,-0.2208,-0.2214,-0.2157,-0.2157,-0.2157,0,0,-0.2153,-0.2165,-0.2169,-0.2192,-0.2196,-0.2215,-0.2203,-0.2214,-0.2229,-0.2199,-0.2205,-0.2196,-0.2188,-0.2198,-0.22,-0.2188,-0.2216,-0.2204,-0.2208,-0.2208,-0.2212,-0.2217,-0.2222,-0.2159,-0.2159,-0.2158,0,0,-0.2157,-0.2166,-0.2177,-0.2195,-0.2212,-0.222,-0.2227,-0.2237,-0.2239,-0.225,-0.2235,-0.2237,-0.2232,-0.2233,-0.2232,-0.2265,-0.2244,-0.2265,-0.2289,-0.2294,-0.2298,-0.2302,-0.2307,-0.2311,-0.2265,-0.2266,-0.2266,0,-0.2154,-0.2172,-0.2183,-0.2204,-0.2222,-0.2225,-0.2248,-0.2257,-0.2265,-0.2272,-0.2257,-0.2262,-0.2252,-0.2271,-0.2281,-0.2276,-0.2272,-0.2264,-0.2299,-0.2303,-0.2306,-0.231,-0.2314,-0.2268,-0.2267,-0.2267,-0.2267,0,-0.2167,-0.2187,-0.2197,-0.2225,-0.2247,-0.2266,-0.229,-0.2304,-0.2304,-0.2311,-0.2327,-0.2315,-0.2317,-0.232,-0.2306,-0.233,-0.2319,-0.2305,-0.2281,-0.2313,-0.2317,-0.232,-0.2271,-0.227,-0.2269,-0.2269,0,0,-0.2142,-0.2196,-0.2198,-0.2219,-0.2262,-0.2279,-0.2315,-0.2347,-0.2366,-0.2368,-0.2391,-0.2392,-0.2378,-0.2377,-0.2365,-0.2368,-0.2387,-0.2345,-0.2344,-0.2345,-0.2397,-0.2417,-0.2422,-0.2374,-0.2375,-0.2375,-0.2392,0,-0.2146,-0.2189,-0.2218,-0.2259,-0.2285,-0.2318,-0.2351,-0.2381,-0.24,-0.2422,-0.2419,-0.2428,-0.2403,-0.24,-0.2402,-0.2391,-0.2396,-0.2384,-0.237,-0.237,-0.2378,-0.2427,-0.2416,-0.2432,-0.2395,-0.2396,-0.2396,0,-0.2143,-0.2176,-0.2219,-0.2283,-0.2296,-0.2321,-0.2377,-0.2408,-0.2448,-0.2459,-0.2472,-0.2471,-0.248,-0.245,-0.245,-0.244,-0.2423,-0.2412,-0.2412,-0.2419,-0.2396,-0.2393,-0.2439,-0.2412,-0.2401,-0.2401,-0.24,0,-0.211,-0.2175,-0.2207,-0.2229,-0.23,-0.2324,-0.2357,-0.241,-0.2444,-0.2477,-0.2501,-0.2507,-0.2512,-0.2496,-0.2482,-0.246,-0.2485,-0.245,-0.2456,-0.2456,-0.244,-0.2439,-0.2453,-0.2454,-0.2454,-0.2454,-0.2454,0,-0.2101,-0.2125,-0.2191,-0.2208,-0.2246,-0.2303,-0.2346,-0.2381,-0.2443,-0.2479,-0.2506,-0.2538,-0.2523,-0.254,-0.2508,-0.2506,-0.2505,-0.2474,-0.2469,-0.2454,-0.2454,-0.2422,-0.2413,-0.2454,-0.2454,-0.2454,-0.2454,0,-0.2053,-0.21,-0.2137,-0.2208,-0.223,-0.2251,-0.2335,-0.2365,-0.243,-0.2483,-0.2495,-0.2562,-0.2583,-0.2586,-0.2571,-0.2548,-0.2509,-0.2532,-0.2522,-0.2516,-0.2484,-0.2477,-0.2455,-0.2395,-0.2533,-0.2534,-0.2535,0,-0.203,-0.2043,-0.2115,-0.213,-0.2158,-0.2206,-0.2239,-0.233,-0.2372,-0.2494,-0.2512,-0.2582,-0.2622,-0.2643,-0.2628,-0.261,-0.2538,-0.2568,-0.2526,-0.25,-0.2487,-0.2437,-0.2382,-0.2516,-0.2517,-0.2517,-0.2517,0,-0.1967,-0.1989,-0.2013,-0.206,-0.2092,-0.2137,-0.2196,-0.224,-0.2348,-0.2424,-0.2517,-0.2576,-0.2652,-0.267,-0.2678,-0.2635,-0.2525,-0.2573,-0.2545,-0.2486,-0.2433,-0.2366,-0.2487,-0.252,-0.252,-0.252,-0.252,-0.2519,-0.1894,-0.1896,-0.1928,-0.1963,-0.2002,-0.2036,-0.2047,-0.2156,-0.2236,-0.2371,-0.2471,-0.2612,-0.2688,-0.2719,-0.268,-0.262,-0.2559,-0.2534,-0.2531,-0.2484,-0.2421,-0.2559,-0.2588,-0.2588,-0.2588,-0.2589,-0.2589,0,-0.1796,-0.1809,-0.1832,-0.1867,-0.187,-0.1926,-0.1987,-0.2005,-0.2089,-0.2323,-0.2442,-0.2691,-0.2715,-0.2756,-0.2741,-0.2624,-0.2504,-0.251,-0.2428,-0.2372,-0.2501,-0.2496,-0.2509,-0.2509,-0.2509,-0.2509,-0.2509,-0.2509,-0.1738,-0.172,-0.1742,-0.1713,-0.1736,-0.171,-0.1718,-0.1794,-0.194,-0.2206,-0.2481,-0.2728,-0.2772,-0.2911,-0.2782,-0.2633,-0.2475,-0.2403,-0.2339,-0.2441,-0.2441,-0.2442,-0.2435,-0.2434,-0.2434,-0.2159,-0.2157,-0.2156]},{"header":{"parameterUnit":"m.s-1","parameterCategory":2,"la1":30.2991,"la2":30.254,"lo1":-89.0895,"lo2":-89.0444,"dy":0.0017,"dx":0.0017,"nx":28,"ny":28,"refTime":"2023-10-07T09:00:00:Z","depth":"0","parameterNumber":3,"parameterNumberName":"V-component_of_CURRENTS"},"data":[0,0,0,0,0,0,0,0,0,0,0,0,0,0,0,0,0,0,0,0,0,0,0,0,0,0,0,0,0,0,0,0,0,0,0,0,0,0,0,0,0,0,0,0,0,0,0,0,0,0,0,0,0,0,0,0,0,0,-0.0343,-0.0342,0,-0.0277,-0.0276,-0.0276,-0.0238,-0.0238,-0.0238,-0.0238,-0.0175,-0.0174,-0.0172,0,0,0,0,0,0,0,0,0,0,0,0,0,-0.041,-0.0409,-0.0343,-0.0342,-0.0341,-0.0277,-0.0276,-0.0275,-0.0238,-0.0238,-0.0238,-0.0237,-0.0176,-0.0174,-0.0172,0,0,0,0,0,0,0,0,0,0,0,0,0,-0.0366,-0.0409,-0.0343,-0.0315,-0.0311,-0.0277,-0.0276,-0.0275,-0.0238,-0.0238,-0.0238,-0.0237,-0.0176,-0.0174,-0.0172,-0.0163,0,0,-0.0165,-0.0164,0,0,0,0,0,0,0,0,-0.0369,-0.0364,-0.032,-0.0317,-0.0313,-0.0265,-0.0277,-0.0238,-0.0238,-0.0266,-0.0238,-0.0237,-0.0206,-0.0201,-0.019,-0.016,-0.0157,-0.0165,-0.0163,-0.0162,-0.0162,0,0,0,0,0,0,0,-0.0372,-0.0366,-0.0317,-0.0319,-0.0315,-0.0296,-0.029,-0.0269,-0.0238,-0.0264,-0.0261,-0.0253,-0.0204,-0.0192,-0.0188,-0.0156,-0.0165,-0.0163,-0.0161,-0.0161,-0.0121,-0.0121,0,0,0,0,0,0,-0.0381,-0.0369,-0.0319,-0.0315,-0.0341,-0.0295,-0.0288,-0.0281,-0.0238,-0.0232,-0.0253,-0.0252,-0.0196,-0.019,-0.0185,-0.0177,-0.0163,-0.016,-0.0159,-0.0121,-0.0121,-0.0121,0,0,0,0,0,0,-0.0383,-0.0377,-0.0322,-0.0341,-0.0332,-0.0294,-0.0286,-0.028,-0.0267,-0.023,-0.0224,-0.0248,-0.0195,-0.0189,-0.0169,-0.0175,-0.0159,-0.0157,-0.012,-0.0121,-0.0121,-0.0158,0,0,0,0,0,0,-0.0385,-0.0378,-0.0379,-0.0341,-0.0331,-0.0307,-0.0286,-0.0279,-0.0263,-0.026,-0.0223,-0.0217,-0.0195,-0.0172,-0.0167,-0.0171,-0.0156,-0.012,-0.012,-0.0121,-0.0157,-0.016,-0.0163,0,0,0,0,0,-0.0388,-0.0391,-0.038,-0.0374,-0.0333,-0.0307,-0.0301,-0.0273,-0.0263,-0.026,-0.0235,-0.0218,-0.0172,-0.0171,-0.0164,-0.0168,-0.012,-0.012,-0.0121,-0.0155,-0.0159,-0.0163,0,0,0,0,0,0,-0.0421,-0.0386,-0.0373,-0.0366,-0.0341,-0.0301,-0.0296,-0.0276,-0.0254,-0.0253,-0.0218,-0.0211,-0.0197,-0.0178,-0.0177,-0.0159,-0.0145,-0.0144,-0.0173,-0.0176,-0.0179,-0.0185,-0.0154,0,0,0,0,0,-0.0429,-0.0422,-0.0385,-0.038,-0.037,-0.0334,-0.0321,-0.0302,-0.0275,-0.0265,-0.0238,-0.0213,-0.0194,-0.0182,-0.0162,-0.015,-0.0128,-0.0149,-0.0152,-0.0155,-0.0156,-0.013,-0.013,-0.0124,-0.0124,-0.0124,0,0,-0.0442,-0.0421,-0.0418,-0.0387,-0.0366,-0.0359,-0.0326,-0.031,-0.0303,-0.0262,-0.0248,-0.0222,-0.0194,-0.018,-0.0173,-0.0165,-0.0146,-0.0156,-0.0159,-0.0157,-0.013,-0.0131,-0.0131,-0.0124,-0.0124,-0.0124,0,0,-0.0466,-0.0445,-0.0449,-0.0431,-0.0402,-0.0379,-0.0377,-0.0339,-0.0322,-0.0303,-0.0275,-0.0252,-0.0221,-0.0199,-0.0185,-0.0193,-0.0164,-0.019,-0.0207,-0.0182,-0.0182,-0.0182,-0.0158,-0.0155,-0.019,-0.019,-0.019,0,-0.0486,-0.0484,-0.0447,-0.0446,-0.0437,-0.0392,-0.0397,-0.0372,-0.0333,-0.032,-0.0306,-0.0255,-0.023,-0.0211,-0.0212,-0.02,-0.0181,-0.0196,-0.0186,-0.0185,-0.0185,-0.0159,-0.0156,-0.0192,-0.0192,-0.0192,-0.0192,0,-0.0511,-0.0511,-0.0513,-0.0497,-0.048,-0.0478,-0.0438,-0.0425,-0.0399,-0.0366,-0.0338,-0.0297,-0.0266,-0.0256,-0.0235,-0.0219,-0.0205,-0.0194,-0.0177,-0.0187,-0.016,-0.0156,-0.0195,-0.0194,-0.0194,-0.0193,0,0,-0.0552,-0.0537,-0.0538,-0.0546,-0.0509,-0.0502,-0.049,-0.0463,-0.0456,-0.0409,-0.0393,-0.035,-0.0316,-0.0298,-0.0266,-0.0239,-0.0216,-0.0216,-0.0214,-0.0193,-0.016,-0.0117,-0.0108,-0.0203,-0.0202,-0.0202,-0.0143,0,-0.0588,-0.061,-0.0582,-0.0601,-0.0612,-0.0569,-0.0563,-0.0529,-0.0488,-0.0459,-0.0402,-0.0372,-0.0335,-0.0321,-0.0287,-0.0233,-0.0207,-0.0233,-0.0151,-0.0149,-0.011,-0.0102,-0.0091,-0.0035,-0.0139,-0.0138,-0.0138,0,-0.0623,-0.0635,-0.0663,-0.0665,-0.0664,-0.0662,-0.0642,-0.0626,-0.0566,-0.0536,-0.0483,-0.0428,-0.0374,-0.0346,-0.0255,-0.0272,-0.0222,-0.0178,-0.0175,-0.0119,-0.0098,-0.0041,-0.0023,0.0078,-0.0131,-0.0131,-0.0132,0,-0.0679,-0.069,-0.072,-0.0719,-0.071,-0.0712,-0.07,-0.065,-0.064,-0.0573,-0.0555,-0.0474,-0.0436,-0.0359,-0.0251,-0.0257,-0.0147,-0.0147,-0.0061,-0.0058,-0.0024,-0.0018,0.0101,-0.0091,-0.0091,-0.0092,-0.0092,0,-0.0732,-0.0754,-0.075,-0.0768,-0.0806,-0.0764,-0.0778,-0.0754,-0.0707,-0.0699,-0.0595,-0.0567,-0.0437,-0.0349,-0.0262,-0.0136,-0.0153,-0.0059,-0.0037,-0.0036,-0.0032,0.0078,0.0143,-0.0089,-0.009,-0.009,-0.0091,0,-0.0789,-0.0786,-0.0825,-0.083,-0.0836,-0.0857,-0.0846,-0.0851,-0.0792,-0.0778,-0.0761,-0.0637,-0.0515,-0.0374,-0.0238,-0.015,0.0036,0.0006,0.0004,0.0025,0.0192,0.0254,0.0443,0.0464,0.0101,0.0103,0.0104,0,-0.0822,-0.0849,-0.0882,-0.0914,-0.0919,-0.0938,-0.0958,-0.0911,-0.0904,-0.0824,-0.0823,-0.0689,-0.06,-0.0354,-0.0162,0.0015,0.0099,0.0125,0.0116,0.0214,0.0299,0.0361,0.0368,0.0144,0.0145,0.0146,0.0147,0,-0.0887,-0.0895,-0.093,-0.1002,-0.1035,-0.1068,-0.1076,-0.1088,-0.1029,-0.1007,-0.0943,-0.086,-0.0583,-0.0349,-0.0078,0.0029,0.0217,0.0155,0.0257,0.0351,0.0427,0.0452,0.0091,0.0158,0.0157,0.0156,0.0156,0.0155,-0.0932,-0.0978,-0.1026,-0.1095,-0.1139,-0.1186,-0.1222,-0.1221,-0.1228,-0.1188,-0.1058,-0.0929,-0.0512,-0.0118,0.0013,0.0328,0.0315,0.0394,0.0462,0.0517,0.0545,0.0214,0.0306,0.0306,0.0306,0.0306,0.0306,0,-0.0991,-0.1043,-0.1117,-0.1196,-0.1264,-0.1257,-0.1298,-0.1332,-0.1365,-0.1273,-0.1193,-0.0761,-0.0381,-0.0002,0.0499,0.0637,0.0642,0.0697,0.0774,0.076,0.0464,0.0471,0.0604,0.0603,0.0603,0.0603,0.0603,0.0603,-0.1025,-0.1114,-0.1158,-0.129,-0.1342,-0.1423,-0.1452,-0.15,-0.1454,-0.1319,-0.1088,-0.089,-0.0242,0.062,0.1014,0.1003,0.1076,0.1087,0.112,0.0909,0.0885,0.0862,0.0882,0.1099,0.11,0.1366,0.1369,0.1371]}],[{"header":{"parameterUnit":"m.s-1","parameterCategory":2,"la1":30.2991,"la2":30.254,"lo1":-89.0895,"lo2":-89.0444,"dy":0.0017,"dx":0.0017,"nx":28,"ny":28,"refTime":"2023-10-07T09:00:00:Z","depth":"2","parameterNumber":2,"parameterNumberName":"U-component_of_CURRENTS"},"data":[0,0,0,0,0,0,0,0,0,0,0,0,0,0,0,0,0,0,0,0,0,0,0,0,0,0,0,0,0,0,0,0,0,0,0,0,0,0,0,0,0,0,0,0,0,0,0,0,0,0,0,0,0,0,0,0,0,0,-0.2146,-0.2146,0,-0.215,-0.2149,-0.2149,-0.2126,-0.2126,-0.2125,-0.2125,-0.2091,-0.209,-0.209,0,0,0,0,0,0,0,0,0,0,0,0,0,-0.2103,-0.2104,-0.2146,-0.2146,-0.2146,-0.215,-0.2149,-0.2149,-0.2126,-0.2126,-0.2125,-0.2125,-0.2091,-0.2091,-0.209,0,0,0,0,0,0,0,0,0,0,0,0,0,-0.2113,-0.2104,-0.2145,-0.2137,-0.2137,-0.215,-0.2149,-0.2149,-0.2126,-0.2126,-0.2125,-0.2125,-0.2091,-0.2091,-0.209,-0.2096,0,0,-0.2087,-0.2087,0,0,0,0,0,0,0,0,-0.2113,-0.2114,-0.2138,-0.2138,-0.2137,-0.2139,-0.2122,-0.2131,-0.2126,-0.2127,-0.2125,-0.2124,-0.2106,-0.2104,-0.2102,-0.2095,-0.2093,-0.2087,-0.2087,-0.2086,-0.2086,0,0,0,0,0,0,0,-0.2112,-0.2114,-0.2144,-0.2139,-0.2138,-0.2129,-0.2129,-0.2124,-0.2117,-0.2127,-0.2126,-0.2131,-0.2105,-0.2103,-0.2101,-0.2093,-0.2087,-0.2087,-0.2086,-0.2086,-0.2111,-0.2112,0,0,0,0,0,0,-0.2119,-0.2114,-0.2144,-0.2144,-0.2127,-0.213,-0.2131,-0.2137,-0.2118,-0.2115,-0.2132,-0.213,-0.2105,-0.2102,-0.21,-0.2118,-0.2086,-0.2086,-0.2085,-0.2109,-0.2111,-0.2112,0,0,0,0,0,0,-0.2118,-0.2122,-0.2144,-0.2131,-0.2134,-0.2132,-0.2139,-0.2137,-0.2136,-0.2122,-0.2118,-0.2133,-0.2104,-0.2101,-0.2101,-0.2116,-0.2085,-0.2085,-0.2108,-0.211,-0.2111,-0.2147,0,0,0,0,0,0,-0.2117,-0.2122,-0.2125,-0.2132,-0.2135,-0.2159,-0.214,-0.2138,-0.2142,-0.214,-0.2122,-0.2118,-0.2104,-0.2102,-0.21,-0.2114,-0.2084,-0.2107,-0.2109,-0.2111,-0.2145,-0.215,-0.2154,0,0,0,0,0,-0.2116,-0.2126,-0.2126,-0.2129,-0.2141,-0.216,-0.216,-0.2154,-0.2143,-0.2149,-0.2136,-0.2119,-0.2114,-0.2102,-0.2099,-0.2114,-0.2106,-0.2108,-0.2111,-0.2142,-0.2149,-0.2154,0,0,0,0,0,0,-0.2108,-0.2126,-0.2125,-0.2139,-0.2152,-0.2157,-0.216,-0.2159,-0.2154,-0.2147,-0.2128,-0.2124,-0.2132,-0.2121,-0.2108,-0.213,-0.211,-0.2112,-0.2135,-0.2141,-0.2145,-0.2149,-0.2083,0,0,0,0,0,-0.211,-0.212,-0.2138,-0.2148,-0.2155,-0.2158,-0.2163,-0.2163,-0.2162,-0.2159,-0.2149,-0.2141,-0.2142,-0.2139,-0.2136,-0.2144,-0.2138,-0.2155,-0.216,-0.2164,-0.2167,-0.2172,-0.2177,-0.2121,-0.2121,-0.2121,0,0,-0.2108,-0.2119,-0.2124,-0.2146,-0.2151,-0.217,-0.2158,-0.217,-0.2185,-0.2156,-0.2164,-0.2156,-0.2149,-0.2159,-0.2162,-0.215,-0.2179,-0.2167,-0.2171,-0.2171,-0.2175,-0.218,-0.2185,-0.2122,-0.2122,-0.2122,0,0,-0.2112,-0.2121,-0.2132,-0.215,-0.2168,-0.2175,-0.2182,-0.2193,-0.2196,-0.2208,-0.2194,-0.2197,-0.2193,-0.2195,-0.2194,-0.2227,-0.2207,-0.2228,-0.2251,-0.2256,-0.2261,-0.2264,-0.227,-0.2274,-0.2228,-0.2228,-0.2228,0,-0.2109,-0.2127,-0.2138,-0.2159,-0.2176,-0.2181,-0.2203,-0.2212,-0.2221,-0.2229,-0.2215,-0.2222,-0.2213,-0.2233,-0.2242,-0.2238,-0.2235,-0.2226,-0.2262,-0.2265,-0.2269,-0.2273,-0.2277,-0.223,-0.223,-0.223,-0.223,0,-0.2122,-0.2143,-0.2152,-0.218,-0.2202,-0.2221,-0.2245,-0.226,-0.2261,-0.2268,-0.2285,-0.2275,-0.2278,-0.2281,-0.2268,-0.2292,-0.2281,-0.2268,-0.2243,-0.2276,-0.2279,-0.2283,-0.2233,-0.2233,-0.2232,-0.2232,0,0,-0.2098,-0.2152,-0.2153,-0.2175,-0.2217,-0.2234,-0.227,-0.2302,-0.2321,-0.2325,-0.2348,-0.235,-0.2338,-0.2337,-0.2326,-0.233,-0.2349,-0.2307,-0.2306,-0.2307,-0.236,-0.2377,-0.2382,-0.2337,-0.2337,-0.2338,-0.2355,0,-0.2102,-0.2145,-0.2174,-0.2214,-0.2239,-0.2272,-0.2305,-0.2336,-0.2355,-0.2377,-0.2376,-0.2386,-0.2362,-0.236,-0.2363,-0.2352,-0.2358,-0.2346,-0.2333,-0.2332,-0.2339,-0.2387,-0.2154,-0.2151,-0.2358,-0.2358,-0.2359,0,-0.21,-0.2133,-0.2175,-0.2237,-0.225,-0.2275,-0.2331,-0.2362,-0.2403,-0.2414,-0.2428,-0.2428,-0.2438,-0.2409,-0.241,-0.2401,-0.2384,-0.2374,-0.2374,-0.2379,-0.2357,-0.2152,-0.2149,-0.2364,-0.2363,-0.2363,-0.2363,0,-0.2068,-0.2131,-0.2164,-0.2185,-0.2255,-0.2279,-0.2312,-0.2365,-0.2399,-0.2432,-0.2457,-0.2464,-0.247,-0.2455,-0.2442,-0.2421,-0.2446,-0.2412,-0.2417,-0.2417,-0.2212,-0.2194,-0.2416,-0.2416,-0.2416,-0.2416,-0.2416,0,-0.206,-0.2083,-0.2148,-0.2165,-0.2203,-0.2259,-0.2302,-0.2337,-0.2398,-0.2434,-0.2463,-0.2494,-0.2481,-0.2499,-0.2468,-0.2466,-0.2466,-0.2435,-0.2429,-0.2221,-0.2205,-0.2379,-0.2374,-0.2417,-0.2417,-0.2417,-0.2416,0,-0.2012,-0.2059,-0.2095,-0.2166,-0.2187,-0.2208,-0.2291,-0.2321,-0.2386,-0.2439,-0.2451,-0.2518,-0.2539,-0.2543,-0.253,-0.2507,-0.2495,-0.2492,-0.2259,-0.2228,-0.2451,-0.2449,-0.249,-0.2491,-0.2492,-0.2493,-0.2493,0,-0.199,-0.2003,-0.2074,-0.2089,-0.2117,-0.2165,-0.2197,-0.2287,-0.2328,-0.2449,-0.2467,-0.2536,-0.2569,-0.2591,-0.2525,-0.2494,-0.2532,-0.2293,-0.2222,-0.2472,-0.2462,-0.2458,-0.2454,-0.195,-0.1946,-0.1943,-0.194,0,-0.1928,-0.195,-0.1974,-0.202,-0.2052,-0.2096,-0.2154,-0.2197,-0.2303,-0.2373,-0.2464,-0.2515,-0.2542,-0.242,-0.2408,-0.2347,-0.2281,-0.2233,-0.253,-0.1999,-0.1973,-0.1961,-0.1972,-0.1912,-0.1915,-0.1917,-0.1918,-0.1919,-0.1856,-0.1859,-0.189,-0.1925,-0.1964,-0.1996,-0.2006,-0.2093,-0.2163,-0.2236,-0.2357,-0.2366,-0.2336,-0.222,-0.2122,-0.203,-0.2182,-0.2055,-0.2059,-0.2068,-0.2034,-0.2014,-0.1953,-0.1956,-0.1959,-0.1961,-0.1963,0,-0.1753,-0.1773,-0.1796,-0.183,-0.1824,-0.1889,-0.1947,-0.1929,-0.1976,-0.2083,-0.2145,-0.1953,-0.1901,-0.1883,-0.1699,-0.169,-0.1602,-0.1616,-0.1468,-0.1499,-0.1526,-0.1459,-0.1228,-0.1226,-0.1224,-0.1222,0,0,-0.1694,-0.1673,-0.1694,-0.1661,-0.169,-0.1648,-0.1654,-0.166,-0.1698,-0.17,-0.1717,-0.1861,-0.1881,-0.157,-0.1476,-0.1335,-0.1405,-0.127,-0.1857,-0.1716,-0.1741,-0.1776,-0.171,0,0,0,0,0]},{"header":{"parameterUnit":"m.s-1","parameterCategory":2,"la1":30.2991,"la2":30.254,"lo1":-89.0895,"lo2":-89.0444,"dy":0.0017,"dx":0.0017,"nx":28,"ny":28,"refTime":"2023-10-07T09:00:00:Z","depth":"2","parameterNumber":3,"parameterNumberName":"V-component_of_CURRENTS"},"data":[0,0,0,0,0,0,0,0,0,0,0,0,0,0,0,0,0,0,0,0,0,0,0,0,0,0,0,0,0,0,0,0,0,0,0,0,0,0,0,0,0,0,0,0,0,0,0,0,0,0,0,0,0,0,0,0,0,0,-0.0274,-0.0274,0,-0.021,-0.0209,-0.0208,-0.0172,-0.0172,-0.0172,-0.0172,-0.0111,-0.0109,-0.0108,0,0,0,0,0,0,0,0,0,0,0,0,0,-0.034,-0.0339,-0.0275,-0.0274,-0.0273,-0.021,-0.0209,-0.0208,-0.0172,-0.0172,-0.0172,-0.0171,-0.0111,-0.011,-0.0108,0,0,0,0,0,0,0,0,0,0,0,0,0,-0.0297,-0.0338,-0.0275,-0.0247,-0.0244,-0.021,-0.0209,-0.0208,-0.0172,-0.0172,-0.0172,-0.0171,-0.0112,-0.011,-0.0108,-0.0098,0,0,-0.0101,-0.01,0,0,0,0,0,0,0,0,-0.03,-0.0295,-0.0252,-0.0249,-0.0245,-0.0199,-0.021,-0.0171,-0.0172,-0.02,-0.0172,-0.0171,-0.0141,-0.0136,-0.0124,-0.0095,-0.0092,-0.0101,-0.0099,-0.0098,-0.0098,0,0,0,0,0,0,0,-0.0303,-0.0297,-0.0249,-0.0251,-0.0247,-0.0228,-0.0223,-0.0202,-0.0172,-0.0197,-0.0194,-0.0187,-0.0139,-0.0127,-0.0123,-0.0092,-0.0101,-0.0099,-0.0097,-0.0096,-0.0057,-0.0058,0,0,0,0,0,0,-0.0312,-0.03,-0.0251,-0.0247,-0.0272,-0.0228,-0.0221,-0.0214,-0.0172,-0.0166,-0.0187,-0.0185,-0.0131,-0.0125,-0.0121,-0.0113,-0.0098,-0.0096,-0.0095,-0.0057,-0.0058,-0.0058,0,0,0,0,0,0,-0.0313,-0.0308,-0.0254,-0.0272,-0.0264,-0.0227,-0.0219,-0.0213,-0.0201,-0.0165,-0.0158,-0.0182,-0.013,-0.0124,-0.0104,-0.0111,-0.0095,-0.0093,-0.0057,-0.0057,-0.0058,-0.0095,0,0,0,0,0,0,-0.0315,-0.0309,-0.031,-0.0273,-0.0263,-0.0239,-0.0219,-0.0212,-0.0197,-0.0194,-0.0158,-0.0152,-0.013,-0.0108,-0.0102,-0.0107,-0.0091,-0.0056,-0.0057,-0.0058,-0.0093,-0.0097,-0.01,0,0,0,0,0,-0.0318,-0.0322,-0.0311,-0.0305,-0.0265,-0.0239,-0.0233,-0.0206,-0.0197,-0.0194,-0.017,-0.0153,-0.0108,-0.0106,-0.0099,-0.0104,-0.0056,-0.0057,-0.0058,-0.0092,-0.0096,-0.0099,0,0,0,0,0,0,-0.0352,-0.0317,-0.0305,-0.0298,-0.0273,-0.0233,-0.023,-0.021,-0.0188,-0.0188,-0.0153,-0.0146,-0.0132,-0.0114,-0.0113,-0.0095,-0.0081,-0.008,-0.0109,-0.0113,-0.0116,-0.0121,-0.009,0,0,0,0,0,-0.036,-0.0353,-0.0317,-0.0312,-0.0302,-0.0267,-0.0255,-0.0236,-0.0209,-0.0199,-0.0173,-0.0149,-0.013,-0.0118,-0.0098,-0.0086,-0.0065,-0.0086,-0.0089,-0.0092,-0.0092,-0.0066,-0.0067,-0.006,-0.006,-0.006,0,0,-0.0373,-0.0352,-0.0349,-0.0319,-0.0299,-0.0291,-0.0259,-0.0244,-0.0237,-0.0197,-0.0183,-0.0158,-0.0129,-0.0116,-0.0109,-0.0101,-0.0083,-0.0093,-0.0095,-0.0094,-0.0067,-0.0068,-0.0068,-0.0061,-0.0061,-0.006,0,0,-0.0398,-0.0377,-0.0381,-0.0363,-0.0335,-0.0312,-0.031,-0.0273,-0.0256,-0.0238,-0.021,-0.0188,-0.0158,-0.0136,-0.0122,-0.013,-0.0101,-0.0127,-0.0144,-0.0119,-0.012,-0.012,-0.0095,-0.0093,-0.0127,-0.0127,-0.0127,0,-0.0417,-0.0415,-0.0379,-0.0378,-0.0369,-0.0325,-0.033,-0.0306,-0.0267,-0.0255,-0.0241,-0.0192,-0.0167,-0.0147,-0.0149,-0.0137,-0.0118,-0.0133,-0.0123,-0.0123,-0.0122,-0.0097,-0.0094,-0.0129,-0.0129,-0.0129,-0.0129,0,-0.0442,-0.0443,-0.0444,-0.0429,-0.0412,-0.041,-0.0371,-0.0358,-0.0333,-0.0301,-0.0273,-0.0232,-0.0203,-0.0192,-0.0171,-0.0156,-0.0142,-0.0131,-0.0114,-0.0125,-0.0098,-0.0094,-0.0132,-0.0131,-0.0131,-0.013,0,0,-0.0484,-0.0469,-0.047,-0.0477,-0.0441,-0.0434,-0.0422,-0.0396,-0.0388,-0.0343,-0.0327,-0.0285,-0.0252,-0.0234,-0.0202,-0.0176,-0.0154,-0.0154,-0.0152,-0.0131,-0.0098,-0.0057,-0.0048,-0.0141,-0.014,-0.014,-0.0082,0,-0.052,-0.0541,-0.0514,-0.0532,-0.0542,-0.05,-0.0494,-0.0461,-0.042,-0.0391,-0.0336,-0.0307,-0.027,-0.0257,-0.0224,-0.017,-0.0145,-0.0171,-0.009,-0.0087,-0.005,-0.0042,-0.0032,0.0023,-0.0078,-0.0077,-0.0077,0,-0.0555,-0.0566,-0.0594,-0.0595,-0.0594,-0.0592,-0.0572,-0.0557,-0.0497,-0.0468,-0.0416,-0.0362,-0.0309,-0.0282,-0.0192,-0.0209,-0.016,-0.0117,-0.0114,-0.0058,-0.0038,0.0018,0.0034,-0.0069,-0.007,-0.0071,-0.0071,0,-0.0611,-0.0622,-0.065,-0.0649,-0.0639,-0.0642,-0.063,-0.058,-0.0571,-0.0505,-0.0488,-0.0407,-0.0371,-0.0295,-0.0189,-0.0195,-0.0086,-0.0085,-0.0002,0.0001,0.0035,0.0041,-0.0031,-0.0031,-0.0031,-0.0031,-0.0031,0,-0.0664,-0.0686,-0.0681,-0.0699,-0.0737,-0.0695,-0.0708,-0.0685,-0.0638,-0.0631,-0.0528,-0.05,-0.0372,-0.0285,-0.0199,-0.0075,-0.0092,0.0001,0.0022,0.0022,0.0026,-0.0035,-0.0036,-0.0029,-0.0029,-0.003,-0.003,0,-0.0722,-0.0719,-0.0756,-0.0761,-0.0767,-0.0788,-0.0777,-0.0782,-0.0724,-0.071,-0.0693,-0.057,-0.045,-0.031,-0.0176,-0.0089,0.0021,0.0065,0.0062,0.0082,0.009,0.0086,0.0154,0.0156,0.0157,0.0159,0.016,0,-0.0755,-0.0781,-0.0814,-0.0846,-0.0851,-0.087,-0.089,-0.0842,-0.0834,-0.0755,-0.0753,-0.0622,-0.0531,-0.0289,-0.0094,0.0083,0.0062,0.018,0.0171,0.0096,0.011,0.0103,0.0097,0.0197,0.0199,0.02,0.0201,0,-0.082,-0.0828,-0.0862,-0.0935,-0.0967,-0.0999,-0.1006,-0.1018,-0.0958,-0.0932,-0.0867,-0.0783,-0.0506,-0.0265,0.0004,0.0099,0.0157,0.0209,0.014,0.015,0.0142,0.0154,0.0146,0.0211,0.021,0.0209,0.0209,0.0208,-0.0865,-0.0911,-0.0959,-0.1027,-0.1071,-0.1116,-0.1151,-0.1131,-0.113,-0.1055,-0.0951,-0.0791,-0.0508,-0.0117,0.0089,0.0274,0.0243,0.0285,0.0279,0.0273,0.0269,0.0265,0.0355,0.0355,0.0355,0.0355,0.0355,0,-0.0915,-0.0976,-0.1049,-0.1127,-0.1182,-0.1188,-0.1226,-0.1218,-0.122,-0.1098,-0.0993,-0.0696,-0.038,-0.0112,0.0212,0.0396,0.0374,0.0406,0.0359,0.0348,0.0339,0.0336,0.0442,0.0443,0.0443,0.0444,0,0,-0.0946,-0.103,-0.1073,-0.1196,-0.1256,-0.1312,-0.1339,-0.1314,-0.1224,-0.1112,-0.0972,-0.0715,-0.038,-0.0129,0.0132,0.0297,0.0259,0.0299,0.0213,0.0118,0.0106,0.0259,0.0242,0,0,0,0,0]}],[{"header":{"parameterUnit":"m.s-1","parameterCategory":2,"la1":30.2991,"la2":30.254,"lo1":-89.0895,"lo2":-89.0444,"dy":0.0017,"dx":0.0017,"nx":28,"ny":28,"refTime":"2023-10-07T09:00:00:Z","depth":"4","parameterNumber":2,"parameterNumberName":"U-component_of_CURRENTS"},"data":[0,0,0,0,0,0,0,0,0,0,0,0,0,0,0,0,0,0,0,0,0,0,0,0,0,0,0,0,0,0,0,0,0,0,0,0,0,0,0,0,0,0,0,0,0,0,0,0,0,0,0,0,0,0,0,0,0,0,-0.1409,-0.141,0,-0.1463,-0.1463,-0.1464,-0.1501,-0.1502,-0.1502,-0.1503,-0.1564,-0.1565,-0.1566,0,0,0,0,0,0,0,0,0,0,0,0,0,-0.1334,-0.1335,-0.1409,-0.141,-0.1411,-0.1463,-0.1463,-0.1464,-0.1501,-0.1502,-0.1502,-0.1503,-0.1563,-0.1565,-0.1566,0,0,0,0,0,0,0,0,0,0,0,0,0,-0.1374,-0.1335,-0.1409,-0.1437,-0.144,-0.1462,-0.1463,-0.1464,-0.1501,-0.1502,-0.1502,-0.1503,-0.1563,-0.1565,-0.1566,-0.1565,0,0,-0.1572,-0.1573,0,0,0,0,0,0,0,0,-0.1371,-0.1376,-0.1432,-0.1435,-0.1438,-0.1477,-0.1459,-0.1499,-0.1501,-0.1476,-0.1503,-0.1503,-0.1536,-0.154,-0.1547,-0.1568,-0.1571,-0.1572,-0.1573,-0.1574,-0.1575,0,0,0,0,0,0,0,-0.1368,-0.1374,-0.1429,-0.1432,-0.1436,-0.1445,-0.1451,-0.1467,-0.1501,-0.1479,-0.1482,-0.149,-0.1538,-0.1545,-0.1548,-0.1572,-0.1572,-0.1574,-0.1575,-0.1576,-0.1676,-0.1678,0,0,0,0,0,0,-0.1364,-0.1371,-0.1427,-0.1431,-0.1407,-0.1446,-0.1453,-0.1463,-0.1501,-0.1507,-0.1489,-0.1491,-0.1541,-0.1546,-0.1551,-0.1619,-0.1574,-0.1576,-0.1577,-0.1675,-0.1677,-0.1678,0,0,0,0,0,0,-0.1363,-0.1369,-0.1425,-0.1403,-0.1411,-0.1446,-0.1458,-0.1464,-0.1496,-0.1509,-0.1516,-0.1519,-0.1542,-0.1548,-0.159,-0.1619,-0.1577,-0.1578,-0.1673,-0.1675,-0.1677,-0.1711,0,0,0,0,0,0,-0.136,-0.1368,-0.1385,-0.1403,-0.1412,-0.1457,-0.1457,-0.1464,-0.1499,-0.1503,-0.1536,-0.1541,-0.1543,-0.1587,-0.1592,-0.162,-0.158,-0.1671,-0.1674,-0.1677,-0.1708,-0.1715,-0.172,0,0,0,0,0,-0.1357,-0.1375,-0.1386,-0.1393,-0.1431,-0.1458,-0.1464,-0.1489,-0.15,-0.152,-0.1544,-0.1541,-0.1609,-0.159,-0.1595,-0.1625,-0.1669,-0.1673,-0.1676,-0.1706,-0.1713,-0.172,0,0,0,0,0,0,-0.1352,-0.1381,-0.1393,-0.142,-0.1446,-0.1465,-0.1487,-0.1503,-0.1537,-0.1547,-0.1558,-0.1565,-0.1612,-0.1616,-0.1594,-0.1664,-0.164,-0.1645,-0.1661,-0.1668,-0.1674,-0.1668,-0.1581,0,0,0,0,0,-0.1358,-0.1381,-0.1407,-0.1431,-0.1445,-0.1471,-0.1489,-0.1508,-0.1534,-0.155,-0.1574,-0.1601,-0.1626,-0.1646,-0.1666,-0.1702,-0.1695,-0.1727,-0.1733,-0.1738,-0.1739,-0.1751,-0.1757,-0.169,-0.169,-0.169,0,0,-0.1364,-0.1382,-0.1397,-0.1432,-0.1453,-0.148,-0.1484,-0.1519,-0.155,-0.1551,-0.1606,-0.1623,-0.1641,-0.1682,-0.1704,-0.1692,-0.1755,-0.1743,-0.1746,-0.1744,-0.1755,-0.1762,-0.1767,-0.1692,-0.1692,-0.1691,0,0,-0.1375,-0.1402,-0.1422,-0.1448,-0.1486,-0.1502,-0.1518,-0.1554,-0.1582,-0.1629,-0.164,-0.1675,-0.1717,-0.1734,-0.1746,-0.1798,-0.1784,-0.1812,-0.1838,-0.1851,-0.1856,-0.186,-0.1858,-0.1862,-0.1816,-0.1816,-0.1816,0,-0.1382,-0.141,-0.1433,-0.1459,-0.1487,-0.1515,-0.1546,-0.1576,-0.1625,-0.165,-0.1655,-0.1723,-0.1739,-0.1784,-0.1804,-0.1811,-0.1809,-0.1807,-0.1856,-0.186,-0.1864,-0.1861,-0.1865,-0.1818,-0.1818,-0.1817,-0.1817,0,-0.1399,-0.1436,-0.1451,-0.1494,-0.1526,-0.1558,-0.1599,-0.1641,-0.1676,-0.1701,-0.1762,-0.1783,-0.182,-0.1836,-0.1836,-0.1879,-0.1866,-0.1859,-0.1833,-0.1873,-0.1868,-0.1871,-0.1821,-0.182,-0.1819,-0.1819,0,0,-0.1376,-0.145,-0.1458,-0.149,-0.155,-0.1575,-0.1635,-0.1689,-0.173,-0.1776,-0.1824,-0.1869,-0.1878,-0.1893,-0.1902,-0.1915,-0.1941,-0.1902,-0.1902,-0.189,-0.196,-0.1855,-0.1848,-0.1942,-0.1942,-0.1943,-0.1945,0,-0.1385,-0.1441,-0.1478,-0.1539,-0.1571,-0.1624,-0.1675,-0.173,-0.1778,-0.1831,-0.1861,-0.1906,-0.1901,-0.1922,-0.1937,-0.1943,-0.1952,-0.1941,-0.1932,-0.1932,-0.1824,-0.1849,-0.1946,-0.1947,-0.1948,-0.1948,-0.1949,0,-0.1383,-0.1425,-0.1486,-0.1567,-0.1586,-0.163,-0.1716,-0.1765,-0.184,-0.1874,-0.192,-0.1944,-0.1982,-0.1967,-0.1992,-0.1985,-0.1977,-0.1974,-0.1973,-0.1863,-0.1832,-0.1901,-0.1954,-0.1954,-0.1954,-0.1953,-0.1953,0,-0.1343,-0.1427,-0.1479,-0.1508,-0.1601,-0.1646,-0.1698,-0.178,-0.1829,-0.1902,-0.1939,-0.1981,-0.201,-0.2011,-0.2015,-0.2006,-0.2029,-0.2013,-0.1909,-0.1902,-0.198,-0.1976,-0.2024,-0.2024,-0.2024,-0.2024,-0.2024,0,-0.1322,-0.1366,-0.147,-0.1497,-0.1561,-0.1633,-0.1706,-0.1762,-0.1847,-0.1889,-0.1955,-0.1984,-0.2024,-0.2045,-0.203,-0.1977,-0.2041,-0.1911,-0.1895,-0.1996,-0.1993,-0.1982,-0.1977,-0.2024,-0.2024,-0.2024,-0.2024,0,-0.1263,-0.1335,-0.1397,-0.1506,-0.1544,-0.1588,-0.1704,-0.1745,-0.1836,-0.1895,-0.1919,-0.2,-0.2012,-0.2041,-0.2046,-0.1986,-0.1953,-0.1921,-0.2029,-0.2019,-0.1811,-0.1809,-0.1788,-0.1785,-0.1781,-0.1779,-0.1777,0,-0.1234,-0.1262,-0.1385,-0.1421,-0.1474,-0.1557,-0.1605,-0.1719,-0.1757,-0.1882,-0.1889,-0.1959,-0.199,-0.1912,-0.1949,-0.1911,-0.1891,-0.1862,-0.1828,-0.1801,-0.1788,-0.179,-0.1791,-0.1772,-0.1771,-0.177,-0.1769,0,-0.1168,-0.1223,-0.127,-0.135,-0.1414,-0.1474,-0.1554,-0.1576,-0.1691,-0.1799,-0.1811,-0.1821,-0.1838,-0.183,-0.1822,-0.1793,-0.1871,-0.1828,-0.1834,-0.1801,-0.178,-0.1771,-0.1776,-0.1758,-0.176,-0.1761,-0.1761,0,-0.111,-0.1128,-0.1199,-0.1255,-0.1329,-0.1357,-0.1421,-0.1465,-0.1524,-0.1665,-0.1664,-0.1735,-0.1817,-0.177,-0.176,-0.1727,-0.1692,-0.163,-0.1646,-0.1658,-0.1614,-0.1568,-0.1463,0,0,0,0,0,-0.1042,-0.1051,-0.1096,-0.1154,-0.1222,-0.1264,-0.1364,-0.1428,-0.1551,-0.1518,-0.1589,-0.1595,-0.159,-0.1631,-0.1565,-0.169,-0.1693,-0.1607,-0.1629,-0.1698,-0.171,-0.1671,0,0,0,0,0,0,-0.0996,-0.1032,-0.1055,-0.1049,-0.1066,-0.1129,-0.1183,-0.1271,-0.1264,-0.1394,-0.1397,-0.1498,-0.1511,-0.1599,-0.1531,-0.1542,-0.1523,-0.1662,-0.1657,-0.169,-0.1702,-0.1712,-0.1676,0,0,0,0,0]},{"header":{"parameterUnit":"m.s-1","parameterCategory":2,"la1":30.2991,"la2":30.254,"lo1":-89.0895,"lo2":-89.0444,"dy":0.0017,"dx":0.0017,"nx":28,"ny":28,"refTime":"2023-10-07T09:00:00:Z","depth":"4","parameterNumber":3,"parameterNumberName":"V-component_of_CURRENTS"},"data":[0,0,0,0,0,0,0,0,0,0,0,0,0,0,0,0,0,0,0,0,0,0,0,0,0,0,0,0,0,0,0,0,0,0,0,0,0,0,0,0,0,0,0,0,0,0,0,0,0,0,0,0,0,0,0,0,0,0,-0.0009,-0.0009,0,0.0027,0.0027,0.0028,0.0052,0.0053,0.0053,0.0053,0.009,0.0091,0.0092,0,0,0,0,0,0,0,0,0,0,0,0,0,-0.0036,-0.0035,-0.0009,-0.0009,-0.0008,0.0027,0.0027,0.0028,0.0052,0.0053,0.0053,0.0053,0.009,0.0091,0.0092,0,0,0,0,0,0,0,0,0,0,0,0,0,-0.0014,-0.0035,-0.0009,0.0008,0.001,0.0027,0.0027,0.0028,0.0052,0.0053,0.0053,0.0053,0.0089,0.0091,0.0092,0.0094,0,0,0.0096,0.0096,0,0,0,0,0,0,0,0,-0.0016,-0.0013,0.0005,0.0007,0.0009,0.0036,0.0032,0.005,0.0052,0.0036,0.0053,0.0053,0.0072,0.0074,0.0081,0.0096,0.0097,0.0096,0.0096,0.0097,0.0097,0,0,0,0,0,0,0,-0.0017,-0.0015,0.0005,0.0006,0.0008,0.0022,0.0025,0.0035,0.0052,0.0038,0.004,0.0044,0.0073,0.0079,0.0082,0.0098,0.0096,0.0097,0.0097,0.0098,0.0111,0.0111,0,0,0,0,0,0,-0.0023,-0.0016,0.0004,0.0006,-0.0003,0.0022,0.0025,0.0027,0.0052,0.0056,0.0043,0.0045,0.0077,0.008,0.0083,0.0081,0.0097,0.0098,0.0099,0.0112,0.0111,0.0111,0,0,0,0,0,0,-0.0024,-0.0022,0.0003,-0.0004,0.0,0.0022,0.0023,0.0027,0.0033,0.0056,0.006,0.0045,0.0077,0.0081,0.0091,0.0082,0.0099,0.01,0.0112,0.0111,0.0111,0.008,0,0,0,0,0,0,-0.0025,-0.0022,-0.0026,-0.0004,0.0,0.0008,0.0023,0.0028,0.0036,0.0038,0.0059,0.0063,0.0078,0.0089,0.0092,0.0084,0.0101,0.0113,0.0112,0.0111,0.0081,0.0078,0.0075,0,0,0,0,0,-0.0026,-0.0032,-0.0026,-0.0024,-0.0005,0.0008,0.0011,0.0028,0.0035,0.0035,0.0051,0.0062,0.0086,0.009,0.0093,0.0086,0.0113,0.0112,0.0111,0.0082,0.0079,0.0075,0,0,0,0,0,0,-0.0046,-0.0029,-0.0023,-0.0024,-0.0011,0.0012,0.0012,0.0024,0.0037,0.0037,0.006,0.0065,0.0068,0.0081,0.0084,0.0087,0.01,0.01,0.0077,0.0074,0.0071,0.0067,0.0102,0,0,0,0,0,-0.0052,-0.0053,-0.0034,-0.0036,-0.0031,-0.0011,-0.0005,0.0006,0.0022,0.0028,0.0044,0.0058,0.0068,0.0074,0.0085,0.0088,0.0107,0.0085,0.0082,0.0079,0.0078,0.0099,0.0098,0.0108,0.0108,0.0108,0,0,-0.0062,-0.0052,-0.0053,-0.004,-0.003,-0.0029,-0.0007,-0.0001,-0.0,0.0029,0.0033,0.0048,0.0066,0.0069,0.0072,0.008,0.0086,0.0078,0.0076,0.0076,0.0098,0.0097,0.0096,0.0107,0.0107,0.0108,0,0,-0.0081,-0.0072,-0.008,-0.0071,-0.0058,-0.0046,-0.0046,-0.0026,-0.0017,-0.0011,0.0009,0.0021,0.0036,0.005,0.0058,0.0045,0.0069,0.0045,0.003,0.005,0.0049,0.0049,0.0072,0.0074,0.0045,0.0045,0.0045,0,-0.0094,-0.01,-0.008,-0.0084,-0.0082,-0.0056,-0.0065,-0.0052,-0.0031,-0.0025,-0.0016,0.001,0.0026,0.0035,0.0031,0.0039,0.0056,0.0041,0.0046,0.0046,0.0047,0.0071,0.0073,0.0044,0.0044,0.0044,0.0044,0,-0.0114,-0.0122,-0.0126,-0.0124,-0.0117,-0.0122,-0.0101,-0.0097,-0.0084,-0.0065,-0.0053,-0.0027,-0.001,-0.0005,0.001,0.0018,0.0031,0.0039,0.0055,0.0044,0.007,0.0073,0.0041,0.0042,0.0042,0.0043,0,0,-0.0138,-0.0143,-0.0145,-0.0156,-0.0141,-0.0141,-0.014,-0.013,-0.0131,-0.0105,-0.0099,-0.0076,-0.0053,-0.0043,-0.002,-0.0,0.0018,0.0018,0.002,0.0042,0.0065,0.0083,0.0089,0.0028,0.0028,0.0028,0.0083,0,-0.0164,-0.019,-0.0178,-0.0202,-0.0215,-0.0194,-0.0199,-0.0183,-0.0161,-0.0147,-0.011,-0.0097,-0.007,-0.0064,-0.0038,0.0004,0.0025,0.0003,0.0073,0.0075,0.0092,0.0092,0.0029,0.0086,0.0086,0.0087,0.0087,0,-0.0187,-0.0204,-0.0236,-0.0253,-0.0256,-0.0264,-0.0264,-0.0261,-0.0228,-0.0212,-0.0179,-0.0142,-0.0105,-0.0085,-0.0014,-0.0029,0.0013,0.0048,0.0051,0.0081,0.0099,0.01,0.0094,0.0094,0.0093,0.0093,0.0092,0,-0.0218,-0.0242,-0.0274,-0.0278,-0.029,-0.0302,-0.0305,-0.0283,-0.0284,-0.0246,-0.0238,-0.0181,-0.0157,-0.0095,-0.0009,-0.0015,0.0075,0.0075,0.0131,0.0133,0.0115,0.0115,0.012,0.012,0.012,0.012,0.012,0,-0.0248,-0.0273,-0.0296,-0.0314,-0.0358,-0.0341,-0.0369,-0.0362,-0.0342,-0.0344,-0.0273,-0.0254,-0.0159,-0.0088,-0.0016,0.0077,0.0072,0.0131,0.0149,0.0101,0.0098,0.0118,0.0117,0.0122,0.0121,0.0121,0.0121,0,-0.0274,-0.0288,-0.0331,-0.036,-0.0377,-0.0404,-0.0426,-0.0439,-0.0411,-0.0408,-0.0399,-0.0311,-0.0218,-0.0109,0.0,0.0063,0.0152,0.0185,0.0135,0.0149,0.0196,0.0193,0.0242,0.0243,0.0244,0.0244,0.0245,0,-0.0288,-0.0314,-0.0373,-0.041,-0.0428,-0.0466,-0.0497,-0.0485,-0.0485,-0.0441,-0.0437,-0.0345,-0.0278,-0.0099,0.0014,0.0163,0.0181,0.0228,0.0203,0.0196,0.0209,0.0204,0.0199,0.0246,0.0247,0.0247,0.0247,0,-0.0316,-0.034,-0.0378,-0.0461,-0.0507,-0.0551,-0.0578,-0.0587,-0.0562,-0.0541,-0.0468,-0.0363,-0.025,-0.0103,0.0024,0.0127,0.0199,0.0238,0.0236,0.0212,0.0203,0.0213,0.0208,0.025,0.025,0.025,0.0249,0,-0.0335,-0.0374,-0.0433,-0.0501,-0.0566,-0.061,-0.0624,-0.0614,-0.0608,-0.0545,-0.0522,-0.0387,-0.0304,-0.0121,-0.0005,0.0106,0.012,0.0145,0.0148,0.0146,0.0107,0.008,0.0106,0,0,0,0,0,-0.0347,-0.0398,-0.047,-0.0542,-0.0605,-0.0639,-0.0667,-0.0663,-0.0638,-0.0599,-0.0557,-0.0447,-0.0258,-0.0161,-0.0052,-0.0,0.0134,0.0132,0.0162,0.0268,0.0264,0.0236,0,0,0,0,0,0,-0.0359,-0.0428,-0.047,-0.0556,-0.0609,-0.0671,-0.0691,-0.0678,-0.0637,-0.0597,-0.0492,-0.0425,-0.0237,-0.0328,-0.0052,-0.0015,0.0018,0.0228,0.023,0.027,0.0267,0.0264,0.0234,0,0,0,0,0]}]]